AB8KN-2 Weather Reports


time (UTC)temp
C
wind
direction
speed
KPH
gust
KPH
rain 1hr
cm
rain 24hr
cm
rain mn
cm
humidity
%
barometer
mb
20260510113016 12 191 1.6 3.2 0.00 0.05 0.03 69 1013.5
20260510112037 12 201 1.6 3.2 0.00 0.05 0.03 68 1013.5
20260510111017 12 209 1.6 4.8 0.00 0.05 0.03 68 1013.2
20260510110017 12 193 1.6 3.2 0.00 0.05 0.03 67 1012.9
20260510105057 12 211 1.6 3.2 0.00 0.05 0.03 66 1013.1
20260510104018 12 199 1.6 4.8 0.00 0.05 0.03 65 1012.9
20260510103017 13 216 1.6 4.8 0.00 0.05 0.03 65 1012.4
20260510102018 13 224 1.6 4.8 0.00 0.08 0.03 65 1012.3
20260510101018 13 224 1.6 8.0 0.00 0.08 0.03 65 1012.3
20260510100135 13 221 1.6 4.8 0.00 0.10 0.03 66 1012.0
20260510095016 13 206 1.6 4.8 0.00 0.13 0.03 67 1012.0
20260510094015 13 204 1.6 3.2 0.00 0.15 0.03 67 1011.8
20260510093015 13 232 1.6 4.8 0.00 0.18 0.03 68 1011.6
20260510092016 14 230 1.6 4.8 0.00 0.20 0.03 67 1011.5
20260510091016 14 223 1.6 4.8 0.00 0.23 0.03 69 1011.3
20260510090016 14 216 1.6 4.8 0.00 0.23 0.03 69 1011.0
20260510085017 15 216 1.6 4.8 0.00 0.23 0.03 69 1010.8
20260510084036 15 228 3.2 9.7 0.00 0.23 0.03 70 1010.6
20260510083016 15 225 1.6 4.8 0.00 0.23 0.03 71 1010.4
20260510082017 15 238 3.2 6.4 0.00 0.23 0.03 74 1010.4
20260510081017 15 228 3.2 6.4 0.00 0.23 0.03 74 1010.1
20260510080017 15 237 3.2 8.0 0.00 0.25 0.03 74 1010.0
20260510075017 15 238 3.2 4.8 0.00 0.28 0.03 74 1010.1
20260510074018 15 221 1.6 4.8 0.00 0.30 0.03 73 1009.9
20260510073017 15 249 3.2 8.0 0.00 0.33 0.03 72 1010.2
20260510072017 16 249 1.6 6.4 0.00 0.36 0.03 70 1010.3
20260510071018 16 223 1.6 4.8 0.00 0.38 0.03 70 1010.2
20260510070018 16 236 1.6 6.4 0.00 0.41 0.03 69 1010.0
20260510065015 16 238 1.6 4.8 0.00 0.43 0.03 69 1010.1
20260510064016 16 218 1.6 6.4 0.00 0.43 0.03 69 1010.0
20260510063056 16 208 1.6 6.4 0.03 0.48 0.03 70 1009.9
20260510062016 16 213 1.6 6.4 0.03 0.51 0.03 68 1009.8
20260510061016 16 222 1.6 9.7 0.03 0.53 0.03 69 1009.8
20260510060016 16 247 3.2 11.3 0.03 0.53 0.03 70 1010.1
20260510055016 17 245 3.2 9.7 0.03 0.53 0.03 73 1010.3
20260510054017 17 258 4.8 14.5 0.00 0.53 0.00 70 1010.4
20260510053016 17 257 4.8 16.1 0.00 0.53 0.00 67 1010.4
20260510052017 17 232 3.2 11.3 0.00 0.53 0.00 68 1010.2
20260510051017 17 220 1.6 6.4 0.00 0.53 0.00 68 1010.1
20260510050017 17 202 1.6 6.4 0.00 0.53 0.00 68 1009.9
20260510045017 17 193 1.6 6.4 0.00 0.53 0.00 67 1009.8
20260510044017 17 187 1.6 6.4 0.00 0.53 0.00 67 1009.7
20260510043015 17 191 1.6 8.0 0.00 0.56 0.00 67 1009.6
20260510042016 17 187 1.6 6.4 0.00 0.56 0.00 68 1009.5
20260510041016 17 195 3.2 8.0 0.00 0.58 0.00 68 1009.4
20260510040016 17 198 3.2 8.0 0.00 0.58 0.00 67 1009.1
20260510035015 17 179 3.2 8.0 0.00 0.58 0.58 67 1009.1
20260510034016 17 173 3.2 9.7 0.00 0.58 0.58 67 1009.0
20260510033016 17 175 3.2 11.3 0.00 0.58 0.58 66 1009.1
20260510032016 17 180 1.6 6.4 0.00 0.58 0.58 66 1009.1
20260510031016 17 186 1.6 6.4 0.00 0.58 0.58 67 1008.9
20260510030016 17 192 1.6 6.4 0.00 0.58 0.58 67 1008.9
20260510025016 17 190 1.6 8.0 0.00 0.58 0.58 66 1008.8
20260510024016 17 175 1.6 4.8 0.00 0.58 0.58 66 1008.8
20260510023017 17 189 1.6 6.4 0.00 0.58 0.58 65 1008.7
20260510022017 17 191 1.6 8.0 0.00 0.58 0.58 64 1008.6
20260510021037 18 200 3.2 9.7 0.00 0.58 0.58 64 1008.4
20260510020017 18 198 3.2 9.7 0.00 0.58 0.58 63 1008.3
20260510015018 18 201 3.2 8.0 0.00 0.58 0.58 64 1008.2
20260510014017 18 205 3.2 11.3 0.00 0.58 0.58 63 1008.0
20260510013017 18 173 3.2 12.9 0.00 0.58 0.58 63 1007.8
20260510012018 18 154 1.6 9.7 0.00 0.58 0.58 62 1007.8
20260510011018 18 134 1.6 6.4 0.00 0.58 0.58 61 1007.5
20260510010015 19 110 1.6 4.8 0.00 0.58 0.58 61 1007.5
20260510005016 19 97 1.6 3.2 0.00 0.61 0.58 59 1007.4
20260510004018 20 78 1.6 4.8 0.00 0.61 0.58 57 1007.3
20260510003015 20 110 1.6 4.8 0.00 0.61 0.58 56 1007.3
20260510002016 20 184 1.6 6.4 0.00 0.61 0.58 54 1007.2
20260510001016 21 188 3.2 11.3 0.00 0.61 0.58 53 1007.1
20260510000016 21 131 1.6 12.9 0.00 0.64 0.58 52 1007.0
20260509235037 21 151 1.6 8.0 0.00 0.64 0.58 51 1006.9
20260509234016 21 155 1.6 6.4 0.00 0.64 0.58 50 1006.9
20260509233017 21 183 3.2 9.7 0.00 0.64 0.58 50 1006.9
20260509232017 22 187 4.8 11.3 0.00 0.64 0.58 48 1006.8
20260509231017 22 177 3.2 11.3 0.00 0.64 0.58 47 1006.9
20260509230017 22 166 3.2 9.7 0.00 0.64 0.58 47 1006.8
20260509225017 22 175 4.8 11.3 0.00 0.64 0.58 47 1006.9
20260509224017 22 178 4.8 11.3 0.00 0.64 0.58 47 1006.9
20260509223017 22 219 4.8 12.9 0.00 0.64 0.58 49 1006.9
20260509222018 22 160 4.8 11.3 0.00 0.64 0.58 49 1006.8
20260509221018 22 164 4.8 12.9 0.00 0.64 0.58 50 1006.8
20260509220015 22 161 3.2 12.9 0.00 0.64 0.58 51 1006.8
20260509215035 22 183 4.8 14.5 0.00 0.64 0.58 50 1006.9
20260509214016 23 168 3.2 11.3 0.00 0.64 0.58 50 1007.1
20260509213016 22 156 3.2 11.3 0.00 0.64 0.58 50 1007.2
20260509212016 23 178 4.8 17.7 0.00 0.64 0.58 49 1007.3
20260509211016 23 153 3.2 8.0 0.00 0.64 0.58 50 1007.4
20260509210036 22 146 3.2 9.7 0.00 0.64 0.58 51 1007.3
20260509205016 22 176 4.8 14.5 0.00 0.64 0.58 50 1007.5
20260509204016 22 186 4.8 12.9 0.00 0.64 0.58 51 1007.5
20260509203017 22 211 3.2 11.3 0.00 0.64 0.58 51 1007.6
20260509202017 22 169 4.8 12.9 0.00 0.64 0.58 52 1007.7
20260509201017 21 175 3.2 9.7 0.00 0.64 0.58 54 1007.8
20260509200017 21 155 4.8 11.3 0.00 0.64 0.58 54 1007.7
20260509195017 21 150 3.2 14.5 0.00 0.64 0.58 55 1007.8
20260509194018 22 182 3.2 12.9 0.00 0.64 0.58 54 1008.1
20260509193018 21 177 4.8 11.3 0.00 0.64 0.58 53 1008.2
20260509192018 21 138 4.8 11.3 0.00 0.64 0.58 57 1008.3
20260509191018 21 150 4.8 14.5 0.00 0.64 0.58 56 1008.1
20260509190015 21 177 3.2 9.7 0.00 0.64 0.58 55 1008.5
20260509185036 21 150 3.2 11.3 0.00 0.64 0.58 56 1008.5
20260509184036 21 172 3.2 11.3 0.00 0.64 0.58 55 1008.6
20260509183016 21 178 4.8 11.3 0.00 0.64 0.58 56 1008.8
20260509182036 21 164 4.8 12.9 0.00 0.64 0.58 56 1008.8
20260509181016 21 159 3.2 12.9 0.00 0.64 0.58 57 1008.9
20260509180016 20 178 3.2 9.7 0.00 0.64 0.58 58 1009.2
20260509175017 20 165 3.2 16.1 0.00 0.64 0.58 60 1009.0
20260509174017 19 179 4.8 12.9 0.00 0.64 0.58 60 1009.2
20260509173018 19 187 4.8 14.5 0.00 0.64 0.58 62 1009.0
20260509172017 19 155 3.2 9.7 0.00 0.64 0.58 62 1009.0
20260509171017 18 205 4.8 20.9 0.00 0.64 0.58 63 1009.6
20260509170017 18 203 3.2 12.9 0.00 0.64 0.58 68 1008.8
20260509165017 18 185 3.2 11.3 0.00 0.64 0.58 68 1009.8
20260509164017 18 281 3.2 6.4 0.00 0.64 0.58 69 1009.5
20260509163018 17 228 3.2 8.0 0.00 0.64 0.58 69 1009.5
20260509162017 17 210 3.2 9.7 0.00 0.64 0.58 69 1009.3
20260509161038 17 277 3.2 8.0 0.00 0.64 0.58 72 1009.5
20260509160015 17 193 3.2 6.4 0.00 0.64 0.58 73 1009.5
20260509155036 17 226 3.2 8.0 0.00 0.64 0.58 74 1009.4
20260509154016 16 215 3.2 9.7 0.00 0.64 0.58 75 1008.9
20260509153016 16 200 3.2 9.7 0.00 0.64 0.58 75 1009.0
20260509152016 16 177 1.6 8.0 0.00 0.64 0.58 77 1009.3
20260509151016 16 203 3.2 9.7 0.00 0.64 0.58 79 1008.8
20260509150036 15 192 3.2 6.4 0.00 0.64 0.58 80 1008.9
20260509145017 15 184 3.2 8.0 0.00 0.64 0.58 80 1008.7
20260509144017 16 206 3.2 9.7 0.00 0.64 0.58 82 1008.5
20260509143016 16 199 3.2 9.7 0.00 0.64 0.58 80 1008.7
20260509142017 15 195 1.6 6.4 0.00 0.64 0.58 83 1009.2
20260509141017 15 209 3.2 6.4 0.00 0.64 0.58 84 1008.8
20260509140058 15 208 3.2 8.0 0.00 0.64 0.58 85 1009.0
20260509135017 15 202 1.6 6.4 0.00 0.64 0.58 86 1008.9
20260509134021 15 202 3.2 6.4 0.00 0.64 0.58 87 1009.3
20260509133017 14 196 4.8 9.7 0.00 0.64 0.58 88 1009.2
20260509132018 13 204 4.8 14.5 0.00 0.64 0.58 91 1009.4
20260509131038 13 193 3.2 6.4 0.03 0.64 0.58 95 1008.8
20260509130018 12 183 3.2 6.4 0.03 0.64 0.58 96 1008.9
20260509125018 12 171 4.8 6.4 0.03 0.64 0.58 97 1008.8
20260509124018 12 163 3.2 4.8 0.03 0.64 0.58 97 1008.8
20260509123019 11 166 3.2 4.8 0.03 0.64 0.58 97 1008.8
20260509122019 11 176 3.2 6.4 0.03 0.64 0.58 96 1008.6
20260509121016 11 165 3.2 8.0 0.03 0.64 0.56 96 1008.3
20260509120015 11 163 3.2 6.4 0.00 0.61 0.56 96 1008.2
20260509115016 11 168 4.8 8.0 0.00 0.61 0.56 96 1008.3
20260509114016 11 170 3.2 8.0 0.00 0.61 0.53 96 1008.4